This is the latest recevied weather packets stored in our database for station/object ac2ev. If no packets are shown the sender has not sent any weather packets the latest 10 day(s).
| Time | Temp. | Humidity | Pressure | Rain* | Wind** | Luminosity | Snow |
|---|---|---|---|---|---|---|---|
| 1787692442 | 22.78° C | 63% | 1016.2 hPa | 0 mm | - | - | - |
| 1787692142 | 22.78° C | 62% | 1016.2 hPa | 0 mm | - | - | - |
| 1787691842 | 22.78° C | 62% | 1016.2 hPa | 0 mm | - | - | - |
| 1787691543 | 22.78° C | 63% | 1016.2 hPa | 0 mm | - | - | - |
| 1787691243 | 23.33° C | 63% | 1016.3 hPa | 0 mm | - | - | - |
| 1787690943 | 23.33° C | 63% | 1016.2 hPa | 0 mm | - | - | - |
| 1787690642 | 23.33° C | 63% | 1016.2 hPa | 0 mm | - | - | - |
| 1787690339 | 23.33° C | 63% | 1016.2 hPa | 0 mm | - | - | - |
| 1787690031 | 22.78° C | 64% | 1016.2 hPa | 0 mm | - | - | - |
| 1787689726 | 22.78° C | 66% | 1016.4 hPa | 0 mm | - | - | - |
| 1787689425 | 22.22° C | 65% | 1016.4 hPa | 0 mm | - | - | - |
| 1787689124 | 22.78° C | 63% | 1016.5 hPa | 0 mm | - | - | - |
| 1787688823 | 22.78° C | 64% | 1016.4 hPa | 0 mm | - | - | - |
| 1787688522 | 22.78° C | 65% | 1016.6 hPa | 0 mm | - | - | - |
| 1787688222 | 22.78° C | 64% | 1016.5 hPa | 0 mm | - | - | - |
| 1787687922 | 22.78° C | 64% | 1016.5 hPa | 0 mm | - | - | - |
| 1787687620 | 22.78° C | 64% | 1016.4 hPa | 0 mm | - | - | - |
| 1787687318 | 22.22° C | 63% | 1016.4 hPa | 0 mm | - | - | - |
| 1787687018 | 22.22° C | 66% | 1016.5 hPa | 0 mm | - | - | - |
| 1787686718 | 22.78° C | 64% | 1016.6 hPa | 0 mm | - | - | - |
| 1787686417 | 22.78° C | 63% | 1016.5 hPa | 0 mm | - | - | - |
| 1787686118 | 22.78° C | 65% | 1016.4 hPa | 0 mm | - | - | - |
| 1787685816 | 22.78° C | 66% | 1016.5 hPa | 0 mm | - | - | - |
| 1787685513 | 22.78° C | 66% | 1016.5 hPa | 0 mm | - | - | - |
| 1787685211 | 22.22° C | 68% | 1016.5 hPa | 0 mm | - | - | - |
* Rain latest hour (hover to see other rain measurements)
** Current wind speed in m/s (hover to see current wind gust speed)